| time (UTC) | temp F | wind direction | speed knots | gust knots | rain 1hr in | rain 24hr in | rain mn in | humidity % | barometer mb |
| 20260503201303 | 57 | 270 | 10.4 | 15.6 | 0.72 | 1.13 | 1.13 | 93 | 1013.4 |
| 20260503200307 | 57 | 254 | 10.4 | 18.2 | 1.08 | 1.13 | 1.13 | 92 | 1013.2 |
| 20260503195304 | 57 | 272 | 7.8 | 17.4 | 1.07 | 1.13 | 1.13 | 92 | 1013.2 |
| 20260503194806 | 58 | 257 | 9.6 | 17.4 | 1.05 | 1.10 | 1.10 | 92 | 1013.2 |
| 20260503193306 | 58 | 304 | 10.4 | 19.1 | 0.98 | 1.04 | 1.04 | 92 | 1012.8 |
| 20260503192305 | 58 | 278 | 10.4 | 17.4 | 0.85 | 0.91 | 0.91 | 91 | 1012.5 |
| 20260503191807 | 58 | 300 | 13.9 | 22.6 | 0.64 | 0.69 | 0.69 | 91 | 1012.3 |
| 20260503191304 | 59 | 273 | 11.3 | 21.7 | 0.36 | 0.42 | 0.42 | 90 | 1012.1 |
| 20260503190306 | 61 | 261 | 5.2 | 7.8 | 0.00 | 0.06 | 0.06 | 89 | 1011.8 |
| 20260503185803 | 61 | 29 | 2.6 | 4.3 | 0.00 | 0.06 | 0.06 | 89 | 1011.4 |
| 20260503185304 | 61 | 51 | 3.5 | 5.2 | 0.00 | 0.06 | 0.06 | 89 | 1011.3 |
| 20260503184806 | 61 | 54 | 4.3 | 7.0 | 0.00 | 0.06 | 0.06 | 89 | 1011.2 |
| 20260503184303 | 61 | 35 | 5.2 | 7.0 | 0.00 | 0.06 | 0.06 | 89 | 1011.3 |
| 20260503182305 | 62 | 21 | 5.2 | 7.0 | 0.00 | 0.06 | 0.06 | 89 | 1011.4 |
| 20260503180804 | 61 | 6 | 5.2 | 6.1 | 0.00 | 0.06 | 0.06 | 89 | 1011.5 |
| 20260503180306 | 61 | 347 | 4.3 | 7.0 | 0.00 | 0.06 | 0.06 | 89 | 1011.5 |
| 20260503175803 | 61 | 13 | 6.1 | 7.8 | 0.00 | 0.06 | 0.06 | 89 | 1011.5 |
| 20260503175304 | 61 | 12 | 5.2 | 7.8 | 0.00 | 0.06 | 0.06 | 90 | 1011.5 |
| 20260503173803 | 61 | 356 | 7.0 | 10.4 | 0.00 | 0.06 | 0.06 | 90 | 1011.4 |
| 20260503171806 | 61 | 349 | 7.0 | 7.8 | 0.00 | 0.06 | 0.06 | 90 | 1011.6 |
| 20260503171304 | 61 | 352 | 6.1 | 7.8 | 0.00 | 0.06 | 0.06 | 91 | 1011.6 |
| 20260503170306 | 62 | 348 | 5.2 | 6.1 | 0.00 | 0.06 | 0.06 | 91 | 1011.7 |
| 20260503131304 | 63 | 19 | 6.1 | 10.4 | 0.00 | 0.27 | 0.03 | 87 | 1012.1 |
| 20260503080803 | 60 | 344 | 0.9 | 2.6 | 0.00 | 0.35 | 0.03 | 95 | 1013.6 |
| 20260503072803 | 59 | 201 | 0.0 | 0.9 | 0.00 | 0.44 | 0.03 | 95 | 1013.3 |
| 20260503071303 | 58 | 201 | 0.9 | 2.6 | 0.00 | 0.44 | 0.03 | 95 | 1013.3 |
| 20260503070804 | 57 | 201 | 0.0 | 0.9 | 0.00 | 0.44 | 0.03 | 95 | 1013.3 |
| 20260503060306 | 56 | 190 | 0.9 | 1.7 | 0.00 | 0.44 | 0.03 | 94 | 1013.1 |
| 20260503053804 | 56 | 174 | 2.6 | 5.2 | 0.00 | 0.44 | 0.03 | 94 | 1013.0 |
| 20260503053307 | 56 | 141 | 4.3 | 7.0 | 0.00 | 0.44 | 0.03 | 94 | 1013.0 |
| 20260503051303 | 57 | 180 | 1.7 | 2.6 | 0.00 | 0.44 | 0.03 | 94 | 1013.0 |
| 20260503050803 | 57 | 173 | 1.7 | 2.6 | 0.00 | 0.44 | 0.03 | 94 | 1013.0 |
| 20260503045305 | 56 | 180 | 1.7 | 2.6 | 0.00 | 0.44 | 0.03 | 94 | 1013.0 |
| 20260503044806 | 56 | 170 | 1.7 | 4.3 | 0.00 | 0.44 | 0.03 | 94 | 1013.1 |
| 20260503043804 | 57 | 176 | 1.7 | 2.6 | 0.00 | 0.44 | 0.03 | 94 | 1012.9 |
| 20260503041807 | 57 | 201 | 2.6 | 4.3 | 0.00 | 0.44 | 0.03 | 94 | 1012.9 |
| 20260503040306 | 57 | 206 | 2.6 | 5.2 | 0.00 | 0.44 | 0.03 | 94 | 1012.9 |
| 20260503034806 | 57 | 197 | 2.6 | 2.6 | 0.00 | 0.44 | 0.03 | 94 | 1013.1 |
| 20260503032803 | 58 | 204 | 2.6 | 4.3 | 0.00 | 0.44 | 0.03 | 94 | 1013.1 |
| 20260503031304 | 58 | 192 | 1.7 | 2.6 | 0.00 | 0.44 | 0.03 | 94 | 1013.1 |
| 20260503030803 | 58 | 183 | 1.7 | 2.6 | 0.00 | 0.44 | 0.03 | 94 | 1013.1 |
| 20260503025803 | 58 | 171 | 1.7 | 2.6 | 0.00 | 0.44 | 0.03 | 94 | 1013.2 |
| 20260503025305 | 58 | 207 | 1.7 | 2.6 | 0.00 | 0.44 | 0.03 | 94 | 1013.2 |
| 20260503023306 | 58 | 197 | 0.9 | 2.6 | 0.00 | 0.44 | 0.03 | 94 | 1013.3 |
| 20260503022803 | 58 | 197 | 1.7 | 2.6 | 0.00 | 0.44 | 0.03 | 94 | 1013.3 |
| 20260503022305 | 58 | 201 | 1.7 | 2.6 | 0.00 | 0.44 | 0.03 | 94 | 1013.3 |
| 20260503021806 | 58 | 206 | 2.6 | 4.3 | 0.00 | 0.44 | 0.03 | 93 | 1013.4 |
| 20260503020306 | 58 | 212 | 1.7 | 2.6 | 0.00 | 0.44 | 0.03 | 93 | 1013.4 |
| 20260503015803 | 58 | 197 | 2.6 | 5.2 | 0.00 | 0.44 | 0.03 | 93 | 1013.6 |
| 20260503015305 | 58 | 225 | 2.6 | 4.3 | 0.00 | 0.44 | 0.03 | 93 | 1013.6 |
| 20260503013305 | 59 | 157 | 0.0 | 0.0 | 0.00 | 0.44 | 0.03 | 93 | 1013.6 |
| 20260503012803 | 59 | 157 | 0.0 | 2.6 | 0.00 | 0.44 | 0.03 | 93 | 1013.6 |
| 20260503012305 | 59 | 157 | 0.9 | 2.6 | 0.00 | 0.44 | 0.03 | 93 | 1013.7 |
| 20260503011304 | 59 | 157 | 0.0 | 2.6 | 0.00 | 0.44 | 0.03 | 93 | 1014.0 |
| 20260503001805 | 59 | 209 | 0.0 | 2.6 | 0.03 | 0.44 | 0.03 | 93 | 1014.3 |
| 20260502235803 | 60 | 209 | 1.7 | 2.6 | 0.03 | 0.44 | 0.03 | 93 | 1014.4 |
| 20260502234807 | 60 | 210 | 1.7 | 2.6 | 0.03 | 0.44 | 0.03 | 93 | 1014.4 |
| 20260502233803 | 60 | 249 | 0.9 | 2.6 | 0.02 | 0.43 | 0.02 | 93 | 1014.5 |
| 20260502232803 | 60 | 240 | 3.5 | 4.3 | 0.02 | 0.43 | 0.02 | 93 | 1014.5 |
| 20260502230806 | 60 | 235 | 2.6 | 4.3 | 0.00 | 0.41 | 0.00 | 93 | 1014.5 |
| 20260502225803 | 60 | 228 | 3.5 | 6.1 | 0.00 | 0.41 | 0.00 | 93 | 1014.5 |
| 20260502224806 | 60 | 238 | 2.6 | 4.3 | 0.00 | 0.41 | 0.00 | 93 | 1014.5 |
| 20260502223804 | 60 | 238 | 1.7 | 2.6 | 0.00 | 0.41 | 0.00 | 93 | 1014.5 |
| 20260502223306 | 60 | 238 | 1.7 | 2.6 | 0.00 | 0.41 | 0.00 | 93 | 1014.6 |
| 20260502215305 | 59 | 239 | 2.6 | 4.3 | 0.00 | 0.41 | 0.41 | 93 | 1014.6 |
| 20260502214806 | 60 | 239 | 2.6 | 4.3 | 0.00 | 0.41 | 0.41 | 93 | 1014.6 |
| 20260502213803 | 60 | 239 | 2.6 | 5.2 | 0.00 | 0.41 | 0.41 | 93 | 1014.7 |
| 20260502213307 | 60 | 239 | 3.5 | 5.2 | 0.00 | 0.41 | 0.41 | 93 | 1014.7 |
| 20260502210804 | 60 | 195 | 1.7 | 2.6 | 0.00 | 0.41 | 0.41 | 93 | 1014.7 |
| 20260502210306 | 60 | 180 | 2.6 | 2.6 | 0.00 | 0.41 | 0.41 | 93 | 1014.8 |
| 20260502205305 | 60 | 208 | 1.7 | 4.3 | 0.00 | 0.41 | 0.41 | 93 | 1014.8 |
| 20260502203306 | 60 | 215 | 2.6 | 4.3 | 0.00 | 0.41 | 0.41 | 93 | 1014.7 |